<?xml version="1.0"?>
<gpx xmlns="http://www.topografix.com/GPX/1/1" xmlns:xsi="http://www.w3.org/2001/XMLSchema-instance" version="1.1" creator="GPX RubyGem 1.0.0 -- http://dougfales.github.io/gpx/" xsi:schemaLocation="http://www.topografix.com/GPX/1/1 http://www.topografix.com/GPX/1/1/gpx.xsd">
  <metadata>
    <name/>
    <time>2026-05-07T17:39:09+00:00</time>
    <bound minlat="90.0" minlon="180.0" maxlat="-90.0" maxlon="-180.0"/>
  </metadata>
  <trk>
    <name/>
    <trkseg>
      <trkpt lat="46.373686" lon="9.910605">
        <time>1970-01-01T00:00:00+00:00</time>
        <ele>3587.0</ele>
      </trkpt>
      <trkpt lat="46.374217" lon="9.912137">
        <time>1970-01-01T00:00:00+00:00</time>
        <ele>3598.0</ele>
      </trkpt>
      <trkpt lat="46.374258" lon="9.913214">
        <time>1970-01-01T00:00:00+00:00</time>
        <ele>3597.0</ele>
      </trkpt>
      <trkpt lat="46.373931" lon="9.915491">
        <time>1970-01-01T00:00:00+00:00</time>
        <ele>3581.0</ele>
      </trkpt>
      <trkpt lat="46.374137" lon="9.917602">
        <time>1970-01-01T00:00:00+00:00</time>
        <ele>3561.0</ele>
      </trkpt>
      <trkpt lat="46.373944" lon="9.920222">
        <time>1970-01-01T00:00:00+00:00</time>
        <ele>3551.0</ele>
      </trkpt>
      <trkpt lat="46.374087" lon="9.92114">
        <time>1970-01-01T00:00:00+00:00</time>
        <ele>3547.0</ele>
      </trkpt>
      <trkpt lat="46.374754" lon="9.921616">
        <time>1970-01-01T00:00:00+00:00</time>
        <ele>3519.0</ele>
      </trkpt>
      <trkpt lat="46.375522" lon="9.923106">
        <time>1970-01-01T00:00:00+00:00</time>
        <ele>3506.0</ele>
      </trkpt>
      <trkpt lat="46.375581" lon="9.924021">
        <time>1970-01-01T00:00:00+00:00</time>
        <ele>3528.0</ele>
      </trkpt>
      <trkpt lat="46.375334" lon="9.925068">
        <time>1970-01-01T00:00:00+00:00</time>
        <ele>3566.0</ele>
      </trkpt>
      <trkpt lat="46.375052" lon="9.924951">
        <time>1970-01-01T00:00:00+00:00</time>
        <ele>3578.0</ele>
      </trkpt>
      <trkpt lat="46.374978" lon="9.925571">
        <time>1970-01-01T00:00:00+00:00</time>
        <ele>3595.0</ele>
      </trkpt>
      <trkpt lat="46.374633" lon="9.925468">
        <time>1970-01-01T00:00:00+00:00</time>
        <ele>3606.0</ele>
      </trkpt>
      <trkpt lat="46.374384" lon="9.926186">
        <time>1970-01-01T00:00:00+00:00</time>
        <ele>3630.0</ele>
      </trkpt>
      <trkpt lat="46.374532" lon="9.927196">
        <time>1970-01-01T00:00:00+00:00</time>
        <ele>3650.0</ele>
      </trkpt>
      <trkpt lat="46.374807" lon="9.927679">
        <time>1970-01-01T00:00:00+00:00</time>
        <ele>3655.0</ele>
      </trkpt>
      <trkpt lat="46.374398" lon="9.928499">
        <time>1970-01-01T00:00:00+00:00</time>
        <ele>3674.0</ele>
      </trkpt>
      <trkpt lat="46.374437" lon="9.929061">
        <time>1970-01-01T00:00:00+00:00</time>
        <ele>3680.0</ele>
      </trkpt>
      <trkpt lat="46.375766" lon="9.932219">
        <time>1970-01-01T00:00:00+00:00</time>
        <ele>3767.0</ele>
      </trkpt>
      <trkpt lat="46.376534" lon="9.933357">
        <time>1970-01-01T00:00:00+00:00</time>
        <ele>3736.0</ele>
      </trkpt>
      <trkpt lat="46.378499" lon="9.939482">
        <time>1970-01-01T00:00:00+00:00</time>
        <ele>3697.0</ele>
      </trkpt>
      <trkpt lat="46.379304" lon="9.94368">
        <time>1970-01-01T00:00:00+00:00</time>
        <ele>3681.0</ele>
      </trkpt>
      <trkpt lat="46.379297" lon="9.944052">
        <time>1970-01-01T00:00:00+00:00</time>
        <ele>3677.0</ele>
      </trkpt>
      <trkpt lat="46.377774" lon="9.945971">
        <time>1970-01-01T00:00:00+00:00</time>
        <ele>3673.0</ele>
      </trkpt>
      <trkpt lat="46.377721" lon="9.946341">
        <time>1970-01-01T00:00:00+00:00</time>
        <ele>3672.0</ele>
      </trkpt>
      <trkpt lat="46.378488" lon="9.949195">
        <time>1970-01-01T00:00:00+00:00</time>
        <ele>3716.0</ele>
      </trkpt>
      <trkpt lat="46.378463" lon="9.95004">
        <time>1970-01-01T00:00:00+00:00</time>
        <ele>3731.0</ele>
      </trkpt>
      <trkpt lat="46.379322" lon="9.952768">
        <time>1970-01-01T00:00:00+00:00</time>
        <ele>3776.0</ele>
      </trkpt>
      <trkpt lat="46.378799" lon="9.955788">
        <time>1970-01-01T00:00:00+00:00</time>
        <ele>3807.0</ele>
      </trkpt>
      <trkpt lat="46.378123" lon="9.958252">
        <time>1970-01-01T00:00:00+00:00</time>
        <ele>3866.0</ele>
      </trkpt>
      <trkpt lat="46.378848" lon="9.96026">
        <time>1970-01-01T00:00:00+00:00</time>
        <ele>3881.0</ele>
      </trkpt>
      <trkpt lat="46.378537" lon="9.961897">
        <time>1970-01-01T00:00:00+00:00</time>
        <ele>3837.0</ele>
      </trkpt>
      <trkpt lat="46.378866" lon="9.964788">
        <time>1970-01-01T00:00:00+00:00</time>
        <ele>3857.0</ele>
      </trkpt>
      <trkpt lat="46.378014" lon="9.966905">
        <time>1970-01-01T00:00:00+00:00</time>
        <ele>3806.0</ele>
      </trkpt>
      <trkpt lat="46.378133" lon="9.967751">
        <time>1970-01-01T00:00:00+00:00</time>
        <ele>3750.0</ele>
      </trkpt>
      <trkpt lat="46.378742" lon="9.969125">
        <time>1970-01-01T00:00:00+00:00</time>
        <ele>3715.0</ele>
      </trkpt>
      <trkpt lat="46.379101" lon="9.968592">
        <time>1970-01-01T00:00:00+00:00</time>
        <ele>3710.0</ele>
      </trkpt>
      <trkpt lat="46.37978" lon="9.968922">
        <time>1970-01-01T00:00:00+00:00</time>
        <ele>3675.0</ele>
      </trkpt>
      <trkpt lat="46.379943" lon="9.968601">
        <time>1970-01-01T00:00:00+00:00</time>
        <ele>3673.0</ele>
      </trkpt>
      <trkpt lat="46.380849" lon="9.96849">
        <time>1970-01-01T00:00:00+00:00</time>
        <ele>3628.0</ele>
      </trkpt>
      <trkpt lat="46.381181" lon="9.96936">
        <time>1970-01-01T00:00:00+00:00</time>
        <ele>3586.0</ele>
      </trkpt>
      <trkpt lat="46.38115" lon="9.970044">
        <time>1970-01-01T00:00:00+00:00</time>
        <ele>3570.0</ele>
      </trkpt>
      <trkpt lat="46.381883" lon="9.970533">
        <time>1970-01-01T00:00:00+00:00</time>
        <ele>3511.0</ele>
      </trkpt>
      <trkpt lat="46.383682" lon="9.970644">
        <time>1970-01-01T00:00:00+00:00</time>
        <ele>3415.0</ele>
      </trkpt>
      <trkpt lat="46.385303" lon="9.970313">
        <time>1970-01-01T00:00:00+00:00</time>
        <ele>3375.0</ele>
      </trkpt>
      <trkpt lat="46.38609" lon="9.970487">
        <time>1970-01-01T00:00:00+00:00</time>
        <ele>3346.0</ele>
      </trkpt>
      <trkpt lat="46.386637" lon="9.968941">
        <time>1970-01-01T00:00:00+00:00</time>
        <ele>3319.0</ele>
      </trkpt>
      <trkpt lat="46.387387" lon="9.968919">
        <time>1970-01-01T00:00:00+00:00</time>
        <ele>3280.0</ele>
      </trkpt>
      <trkpt lat="46.387909" lon="9.967963">
        <time>1970-01-01T00:00:00+00:00</time>
        <ele>3246.0</ele>
      </trkpt>
      <trkpt lat="46.388448" lon="9.967901">
        <time>1970-01-01T00:00:00+00:00</time>
        <ele>3227.0</ele>
      </trkpt>
      <trkpt lat="46.38899" lon="9.968298">
        <time>1970-01-01T00:00:00+00:00</time>
        <ele>3208.0</ele>
      </trkpt>
      <trkpt lat="46.38948" lon="9.969244">
        <time>1970-01-01T00:00:00+00:00</time>
        <ele>3200.0</ele>
      </trkpt>
      <trkpt lat="46.389279" lon="9.969143">
        <time>1970-01-01T00:00:00+00:00</time>
        <ele>3206.0</ele>
      </trkpt>
      <trkpt lat="46.389216" lon="9.969823">
        <time>1970-01-01T00:00:00+00:00</time>
        <ele>3214.0</ele>
      </trkpt>
      <trkpt lat="46.390254" lon="9.971937">
        <time>1970-01-01T00:00:00+00:00</time>
        <ele>3170.0</ele>
      </trkpt>
      <trkpt lat="46.390656" lon="9.971634">
        <time>1970-01-01T00:00:00+00:00</time>
        <ele>3135.0</ele>
      </trkpt>
      <trkpt lat="46.391528" lon="9.970071">
        <time>1970-01-01T00:00:00+00:00</time>
        <ele>3080.0</ele>
      </trkpt>
      <trkpt lat="46.391896" lon="9.970229">
        <time>1970-01-01T00:00:00+00:00</time>
        <ele>3066.0</ele>
      </trkpt>
      <trkpt lat="46.393976" lon="9.972684">
        <time>1970-01-01T00:00:00+00:00</time>
        <ele>3020.0</ele>
      </trkpt>
      <trkpt lat="46.394709" lon="9.973075">
        <time>1970-01-01T00:00:00+00:00</time>
        <ele>3010.0</ele>
      </trkpt>
      <trkpt lat="46.396258" lon="9.973195">
        <time>1970-01-01T00:00:00+00:00</time>
        <ele>3018.0</ele>
      </trkpt>
      <trkpt lat="46.398192" lon="9.974611">
        <time>1970-01-01T00:00:00+00:00</time>
        <ele>3020.0</ele>
      </trkpt>
      <trkpt lat="46.4003" lon="9.976642">
        <time>1970-01-01T00:00:00+00:00</time>
        <ele>3013.0</ele>
      </trkpt>
      <trkpt lat="46.400906" lon="9.976842">
        <time>1970-01-01T00:00:00+00:00</time>
        <ele>3004.0</ele>
      </trkpt>
      <trkpt lat="46.401513" lon="9.975983">
        <time>1970-01-01T00:00:00+00:00</time>
        <ele>2995.0</ele>
      </trkpt>
      <trkpt lat="46.402358" lon="9.975354">
        <time>1970-01-01T00:00:00+00:00</time>
        <ele>3018.0</ele>
      </trkpt>
      <trkpt lat="46.403548" lon="9.973176">
        <time>1970-01-01T00:00:00+00:00</time>
        <ele>3015.0</ele>
      </trkpt>
      <trkpt lat="46.404328" lon="9.972214">
        <time>1970-01-01T00:00:00+00:00</time>
        <ele>3014.0</ele>
      </trkpt>
      <trkpt lat="46.404733" lon="9.972029">
        <time>1970-01-01T00:00:00+00:00</time>
        <ele>3018.0</ele>
      </trkpt>
      <trkpt lat="46.406337" lon="9.972525">
        <time>1970-01-01T00:00:00+00:00</time>
        <ele>3034.0</ele>
      </trkpt>
      <trkpt lat="46.407567" lon="9.971969">
        <time>1970-01-01T00:00:00+00:00</time>
        <ele>3016.0</ele>
      </trkpt>
      <trkpt lat="46.408954" lon="9.972071">
        <time>1970-01-01T00:00:00+00:00</time>
        <ele>2997.0</ele>
      </trkpt>
      <trkpt lat="46.410066" lon="9.971095">
        <time>1970-01-01T00:00:00+00:00</time>
        <ele>3000.0</ele>
      </trkpt>
      <trkpt lat="46.410339" lon="9.969923">
        <time>1970-01-01T00:00:00+00:00</time>
        <ele>2995.0</ele>
      </trkpt>
      <trkpt lat="46.410138" lon="9.968603">
        <time>1970-01-01T00:00:00+00:00</time>
        <ele>2976.0</ele>
      </trkpt>
      <trkpt lat="46.410303" lon="9.967816">
        <time>1970-01-01T00:00:00+00:00</time>
        <ele>2964.0</ele>
      </trkpt>
      <trkpt lat="46.411484" lon="9.965714">
        <time>1970-01-01T00:00:00+00:00</time>
        <ele>2971.0</ele>
      </trkpt>
      <trkpt lat="46.412052" lon="9.96543">
        <time>1970-01-01T00:00:00+00:00</time>
        <ele>2975.0</ele>
      </trkpt>
    </trkseg>
  </trk>
</gpx>
